Tracking 30995 objects as of 5-Jul-2025
HD Live streaming from Space Station
objects crossing your sky now

STARLINK-11287

Track STARLINK-11287 now!
10-day predictions
STARLINK-11287 is classified as:


NORAD ID: 60998
Int'l Code: 2024-158J
Perigee: 366.3 km
Apogee: 367.4 km
Inclination: 53.2 °
Period: 91.7 minutes
Semi major axis: 6737 km
RCS: Unknown
Launch date: September 5, 2024
Source: United States (US)
Launch site: AIR FORCE EASTERN TEST RANGE (AFETR)
Your satellite tracking list
Your tracking list is empty




NASA's NSSDC Master Catalog

Two Line Element Set (TLE):
1 60998U 24158J   25186.84854257 -.00000392  00000-0  16194-5 0  9998
2 60998  53.1591  58.2334 0000830  71.7916 288.3192 15.69704972 48842
Source of the keplerian elements: AFSPC